ENGM

Oslo/Gardermoen Airport

Airport
ICAO code
ENGM
IATA Code
OSL
Summary
ICAO Region
EUR
ICAO Territory
Location

Gardermoen, Ullensaker, Akershus,

Serving
Oslo
Elevation
681 ft
Coordinates
60° 11' 39" N , 11° 6' 1" E
KCC
Airport LOS
Parallel Runway Operation
Airport RI
Runway Misidentification
Metar
Observation
ENGM 041920Z 19012KT 9999 BKN012 M05/M06 Q1033 TEMPO BKN015
Station
Oslo / Gardermoen
Date/Time
2023-02-04 20:20:00
Wind direction
190°
Wind speed
12 kts
Lowest cloud amount
broken clouds
Temperature
-5°C
Dew point
-6°C
Humidity
92%
QNH
1033 hPa
Weather condition
n/a

Description

International airport serving the Norwegian capital.

Climatology

Humid Continental climate (Köppen climate classification Dfb) - Variable weather patterns and a large seasonal temperature variance. Summers are often warm and humid with frequent thunderstorms and winters can be very cold with frequent snowfall and persistent snow cover.

In the winter, steam fog sometimes forms over the lakes to the north of the airfield and, if there is a light Northerly wind, the fog gets blown over the airfield often without much notice.

Runways

Designator Length Width Surface Rops
01R/19L 2950 45 ASP Yes/Yes
01L/19R 3600 45 ASP Yes/Yes

SKYbrary Partners:

Safety knowledge contributed by: